Wetterdaten: Donnerstag, 08.09.2016
Datum Zeit Temp. Auen Feucht Auen Luftdruck Regen Richtung Richtung Windben
08.09.2016 00:00 14,1 C 91 % 1016,3 hPa 0,0 mm W-SW 250 1,6 km/h (1 Bft)
08.09.2016 00:05 13,8 C 90 % 1016,4 hPa 0,0 mm W-SW 250 0,0 km/h (0 Bft)
08.09.2016 00:10 13,8 C 91 % 1016,4 hPa 0,0 mm W-SW 250 0,0 km/h (0 Bft)
08.09.2016 00:15 13,8 C 90 % 1016,3 hPa 0,0 mm W-SW 251 3,2 km/h (1 Bft)
08.09.2016 00:20 13,4 C 91 % 1016,3 hPa 0,0 mm W-SW 251 0,0 km/h (0 Bft)
08.09.2016 00:25 13,6 C 91 % 1016,3 hPa 0,2 mm W-SW 251 1,6 km/h (1 Bft)
08.09.2016 00:30 13,7 C 91 % 1016,3 hPa 0,0 mm W-SW 251 3,2 km/h (1 Bft)
08.09.2016 00:35 13,7 C 91 % 1016,3 hPa 0,0 mm W-SW 251 1,6 km/h (1 Bft)
08.09.2016 00:40 13,6 C 91 % 1016,3 hPa 0,0 mm W-SW 251 0,0 km/h (0 Bft)
08.09.2016 00:45 13,4 C 91 % 1016,3 hPa 0,0 mm W-SW 250 0,0 km/h (0 Bft)
08.09.2016 00:50 13,3 C 91 % 1016,2 hPa 0,0 mm W-SW 253 3,2 km/h (1 Bft)
08.09.2016 00:55 13,1 C 91 % 1016,3 hPa 0,0 mm W-SW 253 1,6 km/h (1 Bft)
08.09.2016 01:00 13,0 C 91 % 1016,2 hPa 0,0 mm N-NO 15 4,8 km/h (1 Bft)
08.09.2016 01:05 12,9 C 92 % 1016,1 hPa 0,0 mm N-NO 15 3,2 km/h (1 Bft)
08.09.2016 01:10 12,9 C 92 % 1016,1 hPa 0,0 mm S-SO 159 3,2 km/h (1 Bft)
08.09.2016 01:15 12,9 C 92 % 1016,0 hPa 0,0 mm S-SW 210 3,2 km/h (1 Bft)
08.09.2016 01:20 13,0 C 92 % 1016,1 hPa 0,0 mm S-SW 210 0,0 km/h (0 Bft)
08.09.2016 01:25 12,6 C 92 % 1016,1 hPa 0,0 mm S-SW 210 3,2 km/h (1 Bft)
08.09.2016 01:30 12,4 C 92 % 1015,9 hPa 0,0 mm S-SW 210 3,2 km/h (1 Bft)
08.09.2016 01:35 12,7 C 92 % 1015,9 hPa 0,0 mm W-SW 253 3,2 km/h (1 Bft)
08.09.2016 01:40 12,7 C 92 % 1015,8 hPa 0,0 mm W-SW 253 1,6 km/h (1 Bft)
08.09.2016 01:45 12,5 C 92 % 1015,7 hPa 0,0 mm W-SW 253 1,6 km/h (1 Bft)
08.09.2016 01:50 12,5 C 92 % 1015,7 hPa 0,0 mm W-SW 253 1,6 km/h (1 Bft)
08.09.2016 01:55 12,6 C 92 % 1015,7 hPa 0,0 mm W-SW 253 1,6 km/h (1 Bft)
08.09.2016 02:00 12,7 C 92 % 1015,7 hPa 0,0 mm W-SW 253 1,6 km/h (1 Bft)
08.09.2016 02:05 12,4 C 92 % 1015,6 hPa 0,0 mm W-SW 247 1,6 km/h (1 Bft)
08.09.2016 02:10 12,3 C 92 % 1015,5 hPa 0,0 mm W-SW 246 1,6 km/h (1 Bft)
08.09.2016 02:15 12,3 C 92 % 1015,5 hPa 0,0 mm W-SW 246 3,2 km/h (1 Bft)
08.09.2016 02:20 12,4 C 92 % 1015,4 hPa 0,0 mm W-SW 246 1,6 km/h (1 Bft)
08.09.2016 02:25 12,4 C 92 % 1015,4 hPa 0,0 mm S 190 4,8 km/h (1 Bft)
08.09.2016 02:30 12,4 C 93 % 1015,3 hPa 0,0 mm S-SW 193 3,2 km/h (1 Bft)
08.09.2016 02:35 12,4 C 92 % 1015,3 hPa 0,0 mm S-SW 193 1,6 km/h (1 Bft)
08.09.2016 02:40 12,3 C 92 % 1015,3 hPa 0,0 mm S-SW 193 3,2 km/h (1 Bft)
08.09.2016 02:45 12,4 C 92 % 1015,3 hPa 0,0 mm S-SW 192 4,8 km/h (1 Bft)
08.09.2016 02:50 12,6 C 92 % 1015,3 hPa 0,0 mm S-SW 192 1,6 km/h (1 Bft)
08.09.2016 02:55 12,1 C 92 % 1015,3 hPa 0,0 mm S-SW 192 1,6 km/h (1 Bft)
08.09.2016 03:00 12,1 C 92 % 1015,2 hPa 0,0 mm SW 232 4,8 km/h (1 Bft)
08.09.2016 03:05 12,3 C 92 % 1015,2 hPa 0,0 mm W-SW 238 4,8 km/h (1 Bft)
08.09.2016 03:10 12,3 C 92 % 1015,1 hPa 0,0 mm W-SW 238 1,6 km/h (1 Bft)
08.09.2016 03:15 12,2 C 92 % 1015,1 hPa 0,0 mm W-NW 282 6,4 km/h (2 Bft)
08.09.2016 03:20 12,1 C 92 % 1015,1 hPa 0,0 mm W-NW 282 3,2 km/h (1 Bft)
08.09.2016 03:25 12,3 C 92 % 1015,1 hPa 0,0 mm W-NW 292 4,8 km/h (1 Bft)
08.09.2016 03:30 12,3 C 92 % 1015,2 hPa 0,0 mm W-NW 292 3,2 km/h (1 Bft)
08.09.2016 03:35 12,1 C 92 % 1015,1 hPa 0,0 mm W-NW 292 3,2 km/h (1 Bft)
08.09.2016 03:40 11,9 C 92 % 1015,1 hPa 0,0 mm W-NW 292 1,6 km/h (1 Bft)
08.09.2016 03:45 11,9 C 92 % 1015,0 hPa 0,0 mm W 267 8,0 km/h (2 Bft)
08.09.2016 03:50 11,9 C 92 % 1015,1 hPa 0,0 mm W 261 6,4 km/h (2 Bft)
08.09.2016 03:55 11,7 C 92 % 1015,1 hPa 0,0 mm W 261 1,6 km/h (1 Bft)
08.09.2016 04:00 11,6 C 92 % 1015,0 hPa 0,0 mm W 261 1,6 km/h (1 Bft)
08.09.2016 04:05 11,3 C 92 % 1015,0 hPa 0,0 mm W 261 3,2 km/h (1 Bft)
08.09.2016 04:10 11,4 C 92 % 1015,0 hPa 0,0 mm W 261 3,2 km/h (1 Bft)
08.09.2016 04:15 11,4 C 93 % 1014,9 hPa 0,0 mm W 261 1,6 km/h (1 Bft)
08.09.2016 04:20 11,3 C 92 % 1014,8 hPa 0,0 mm W 261 1,6 km/h (1 Bft)
08.09.2016 04:25 11,4 C 93 % 1014,8 hPa 0,0 mm W 261 1,6 km/h (1 Bft)
08.09.2016 04:30 11,5 C 93 % 1014,9 hPa 0,0 mm W 261 4,8 km/h (1 Bft)
08.09.2016 04:35 11,4 C 93 % 1014,8 hPa 0,0 mm W 269 6,4 km/h (2 Bft)
08.09.2016 04:40 11,3 C 93 % 1014,8 hPa 0,0 mm W 269 3,2 km/h (1 Bft)
08.09.2016 04:45 11,2 C 92 % 1014,6 hPa 0,0 mm W 269 1,6 km/h (1 Bft)
08.09.2016 04:50 10,9 C 92 % 1014,6 hPa 0,0 mm W 269 1,6 km/h (1 Bft)
08.09.2016 04:55 11,2 C 93 % 1014,6 hPa 0,0 mm W 269 4,8 km/h (1 Bft)
08.09.2016 05:00 11,1 C 93 % 1014,6 hPa 0,0 mm W 269 3,2 km/h (1 Bft)
08.09.2016 05:05 10,9 C 93 % 1014,6 hPa 0,0 mm W 269 1,6 km/h (1 Bft)
08.09.2016 05:10 11,1 C 93 % 1014,5 hPa 0,0 mm W 269 3,2 km/h (1 Bft)
08.09.2016 05:15 11,1 C 93 % 1014,6 hPa 0,0 mm W 269 3,2 km/h (1 Bft)
08.09.2016 05:20 11,1 C 93 % 1014,6 hPa 0,0 mm W 269 3,2 km/h (1 Bft)
08.09.2016 05:25 11,2 C 93 % 1014,6 hPa 0,0 mm W 269 4,8 km/h (1 Bft)
08.09.2016 05:30 11,2 C 93 % 1014,6 hPa 0,0 mm W 269 3,2 km/h (1 Bft)
08.09.2016 05:35 11,0 C 93 % 1014,7 hPa 0,0 mm W 269 1,6 km/h (1 Bft)
08.09.2016 05:40 10,9 C 93 % 1014,6 hPa 0,0 mm W 269 4,8 km/h (1 Bft)
08.09.2016 05:45 11,1 C 93 % 1014,6 hPa 0,0 mm W 269 3,2 km/h (1 Bft)
08.09.2016 05:50 10,8 C 93 % 1014,7 hPa 0,0 mm W 269 3,2 km/h (1 Bft)
08.09.2016 05:55 10,8 C 93 % 1014,6 hPa 0,0 mm W 265 6,4 km/h (2 Bft)
08.09.2016 06:00 11,0 C 93 % 1014,6 hPa 0,0 mm W 269 4,8 km/h (1 Bft)
08.09.2016 06:05 11,1 C 93 % 1014,6 hPa 0,0 mm W 269 3,2 km/h (1 Bft)
08.09.2016 06:10 11,1 C 93 % 1014,6 hPa 0,0 mm W 269 3,2 km/h (1 Bft)
08.09.2016 06:15 11,0 C 93 % 1014,6 hPa 0,0 mm W 269 3,2 km/h (1 Bft)
08.09.2016 06:20 11,0 C 93 % 1014,5 hPa 0,0 mm W 271 6,4 km/h (2 Bft)
08.09.2016 06:25 11,2 C 93 % 1014,7 hPa 0,0 mm W 278 4,8 km/h (1 Bft)
08.09.2016 06:30 11,2 C 93 % 1014,7 hPa 0,0 mm W 278 1,6 km/h (1 Bft)
08.09.2016 06:35 11,2 C 93 % 1014,8 hPa 0,0 mm SW 221 0,0 km/h (0 Bft)
08.09.2016 06:40 11,1 C 93 % 1014,8 hPa 0,0 mm W-NW 290 4,8 km/h (1 Bft)
08.09.2016 06:45 11,2 C 93 % 1014,9 hPa 0,0 mm W-NW 290 4,8 km/h (1 Bft)
08.09.2016 06:50 11,2 C 93 % 1014,8 hPa 0,0 mm W-SW 249 8,0 km/h (2 Bft)
08.09.2016 06:55 11,3 C 93 % 1014,9 hPa 0,0 mm W 267 6,4 km/h (2 Bft)
08.09.2016 07:00 11,4 C 93 % 1014,9 hPa 0,0 mm W 274 6,4 km/h (2 Bft)
08.09.2016 07:05 11,4 C 93 % 1015,0 hPa 0,0 mm W 274 3,2 km/h (1 Bft)
08.09.2016 07:10 11,6 C 93 % 1015,0 hPa 0,0 mm W 274 1,6 km/h (1 Bft)
08.09.2016 07:15 11,9 C 93 % 1015,0 hPa 0,0 mm W 274 4,8 km/h (1 Bft)
08.09.2016 07:20 12,2 C 93 % 1015,0 hPa 0,0 mm W 274 1,6 km/h (1 Bft)
08.09.2016 07:25 12,6 C 93 % 1015,1 hPa 0,0 mm W 276 4,8 km/h (1 Bft)
08.09.2016 07:30 12,9 C 92 % 1015,0 hPa 0,0 mm W 276 6,4 km/h (2 Bft)
08.09.2016 07:35 13,2 C 92 % 1015,1 hPa 0,0 mm W 275 4,8 km/h (1 Bft)
08.09.2016 07:40 13,6 C 92 % 1015,1 hPa 0,0 mm W 275 3,2 km/h (1 Bft)
08.09.2016 07:45 14,0 C 91 % 1015,1 hPa 0,0 mm W 275 6,4 km/h (2 Bft)
08.09.2016 07:50 14,3 C 90 % 1015,1 hPa 0,0 mm W 275 4,8 km/h (1 Bft)
08.09.2016 07:55 14,8 C 90 % 1015,3 hPa 0,0 mm W 271 6,4 km/h (2 Bft)
08.09.2016 08:00 15,1 C 88 % 1015,2 hPa 0,0 mm W 271 4,8 km/h (1 Bft)
08.09.2016 08:05 15,6 C 88 % 1015,1 hPa 0,0 mm W 271 3,2 km/h (1 Bft)
08.09.2016 08:10 15,9 C 88 % 1015,1 hPa 0,0 mm W 271 3,2 km/h (1 Bft)
08.09.2016 08:15 16,2 C 86 % 1015,1 hPa 0,0 mm W 271 3,2 km/h (1 Bft)
08.09.2016 08:20 16,7 C 86 % 1015,1 hPa 0,0 mm W 271 1,6 km/h (1 Bft)
08.09.2016 08:25 17,3 C 85 % 1015,2 hPa 0,0 mm W 271 1,6 km/h (1 Bft)
08.09.2016 08:30 17,7 C 84 % 1015,2 hPa 0,0 mm W 271 3,2 km/h (1 Bft)
08.09.2016 08:35 18,2 C 82 % 1015,2 hPa 0,0 mm W 271 1,6 km/h (1 Bft)
08.09.2016 08:40 17,8 C 83 % 1015,2 hPa 0,0 mm W 271 0,0 km/h (0 Bft)
08.09.2016 08:45 18,4 C 84 % 1015,2 hPa 0,0 mm W 271 1,6 km/h (1 Bft)
08.09.2016 08:50 19,1 C 82 % 1015,2 hPa 0,0 mm W 271 1,6 km/h (1 Bft)
08.09.2016 08:55 19,3 C 81 % 1015,3 hPa 0,0 mm W 271 1,6 km/h (1 Bft)
08.09.2016 09:00 19,9 C 80 % 1015,3 hPa 0,0 mm W 271 3,2 km/h (1 Bft)
08.09.2016 09:05 19,9 C 82 % 1015,3 hPa 0,0 mm W 271 3,2 km/h (1 Bft)
08.09.2016 09:10 20,4 C 80 % 1015,3 hPa 0,0 mm W 271 3,2 km/h (1 Bft)
08.09.2016 09:15 19,8 C 82 % 1015,3 hPa 0,0 mm W 271 1,6 km/h (1 Bft)
08.09.2016 09:20 19,9 C 83 % 1015,2 hPa 0,0 mm W 271 3,2 km/h (1 Bft)
08.09.2016 09:25 20,1 C 77 % 1015,2 hPa 0,0 mm W 271 1,6 km/h (1 Bft)
08.09.2016 09:30 20,4 C 82 % 1015,3 hPa 0,0 mm S 189 4,8 km/h (1 Bft)
08.09.2016 09:35 20,9 C 77 % 1015,2 hPa 0,0 mm SW 215 4,8 km/h (1 Bft)
08.09.2016 09:40 22,1 C 71 % 1015,2 hPa 0,0 mm W 269 4,8 km/h (1 Bft)
08.09.2016 09:45 21,9 C 66 % 1015,3 hPa 0,0 mm N-NW 331 3,2 km/h (1 Bft)
08.09.2016 09:50 21,9 C 66 % 1015,3 hPa 0,0 mm N-NW 348 3,2 km/h (1 Bft)
08.09.2016 09:55 21,8 C 76 % 1015,3 hPa 0,0 mm SO 142 4,8 km/h (1 Bft)
08.09.2016 10:00 21,5 C 78 % 1015,3 hPa 0,0 mm O-SO 108 4,8 km/h (1 Bft)
08.09.2016 10:05 21,3 C 77 % 1015,3 hPa 0,0 mm O-SO 117 4,8 km/h (1 Bft)
08.09.2016 10:10 21,2 C 76 % 1015,3 hPa 0,0 mm O-SO 117 3,2 km/h (1 Bft)
08.09.2016 10:15 21,3 C 76 % 1015,3 hPa 0,0 mm O-SO 117 3,2 km/h (1 Bft)
08.09.2016 10:20 21,4 C 78 % 1015,3 hPa 0,0 mm O-SO 117 4,8 km/h (1 Bft)
08.09.2016 10:25 21,5 C 75 % 1015,3 hPa 0,0 mm O-SO 117 4,8 km/h (1 Bft)
08.09.2016 10:30 21,5 C 74 % 1015,3 hPa 0,0 mm O-SO 117 4,8 km/h (1 Bft)
08.09.2016 10:35 21,7 C 73 % 1015,4 hPa 0,0 mm O-SO 113 4,8 km/h (1 Bft)
08.09.2016 10:40 21,9 C 75 % 1015,3 hPa 0,0 mm SO 132 4,8 km/h (1 Bft)
08.09.2016 10:45 22,0 C 74 % 1015,3 hPa 0,0 mm SO 144 6,4 km/h (2 Bft)
08.09.2016 10:50 22,1 C 72 % 1015,3 hPa 0,0 mm SO 144 6,4 km/h (2 Bft)
08.09.2016 10:55 22,2 C 74 % 1015,3 hPa 0,0 mm O-SO 123 4,8 km/h (1 Bft)
08.09.2016 11:00 22,2 C 73 % 1015,3 hPa 0,0 mm O-SO 121 4,8 km/h (1 Bft)
08.09.2016 11:05 22,4 C 73 % 1015,2 hPa 0,0 mm SO 142 6,4 km/h (2 Bft)
08.09.2016 11:10 22,4 C 71 % 1015,2 hPa 0,0 mm S-SO 152 4,8 km/h (1 Bft)
08.09.2016 11:15 22,6 C 70 % 1015,2 hPa 0,0 mm S-SO 151 6,4 km/h (2 Bft)
08.09.2016 11:20 22,7 C 68 % 1015,2 hPa 0,0 mm S-SO 158 6,4 km/h (2 Bft)
08.09.2016 11:25 22,9 C 66 % 1015,2 hPa 0,0 mm O-SO 111 4,8 km/h (1 Bft)
08.09.2016 11:30 23,1 C 66 % 1015,1 hPa 0,0 mm O-SO 110 6,4 km/h (2 Bft)
08.09.2016 11:35 23,1 C 67 % 1015,1 hPa 0,0 mm O-SO 111 4,8 km/h (1 Bft)
08.09.2016 11:40 23,3 C 69 % 1015,0 hPa 0,0 mm O-SO 121 9,7 km/h (2 Bft)
08.09.2016 11:45 23,3 C 65 % 1015,0 hPa 0,0 mm S-SO 155 8,0 km/h (2 Bft)
08.09.2016 11:50 23,6 C 64 % 1015,0 hPa 0,0 mm S-SO 165 6,4 km/h (2 Bft)
08.09.2016 11:55 23,6 C 66 % 1015,0 hPa 0,0 mm O-SO 118 6,4 km/h (2 Bft)
08.09.2016 12:00 23,6 C 65 % 1015,0 hPa 0,0 mm O-SO 121 4,8 km/h (1 Bft)
08.09.2016 12:05 23,7 C 67 % 1014,9 hPa 0,0 mm O 101 4,8 km/h (1 Bft)
08.09.2016 12:10 23,7 C 67 % 1014,9 hPa 0,0 mm SO 143 8,0 km/h (2 Bft)
08.09.2016 12:15 23,8 C 65 % 1014,9 hPa 0,0 mm O-SO 105 8,0 km/h (2 Bft)
08.09.2016 12:20 23,8 C 66 % 1014,8 hPa 0,0 mm S-SO 160 6,4 km/h (2 Bft)
08.09.2016 12:25 24,0 C 67 % 1014,7 hPa 0,0 mm O-SO 112 9,7 km/h (2 Bft)
08.09.2016 12:30 24,1 C 65 % 1014,6 hPa 0,0 mm O-SO 113 6,4 km/h (2 Bft)
08.09.2016 12:35 24,1 C 61 % 1014,7 hPa 0,0 mm S-SO 163 8,0 km/h (2 Bft)
08.09.2016 12:40 24,1 C 62 % 1014,7 hPa 0,0 mm S-SO 152 8,0 km/h (2 Bft)
08.09.2016 12:45 24,1 C 60 % 1014,6 hPa 0,0 mm S-SO 147 6,4 km/h (2 Bft)
08.09.2016 12:50 24,3 C 64 % 1014,6 hPa 0,0 mm O-SO 102 4,8 km/h (1 Bft)
08.09.2016 12:55 24,3 C 64 % 1014,6 hPa 0,0 mm O-SO 111 4,8 km/h (1 Bft)
08.09.2016 13:00 24,5 C 65 % 1014,6 hPa 0,0 mm SO 134 6,4 km/h (2 Bft)
08.09.2016 13:05 24,5 C 64 % 1014,6 hPa 0,0 mm O-SO 103 4,8 km/h (1 Bft)
08.09.2016 13:10 24,6 C 62 % 1014,5 hPa 0,0 mm O-SO 119 4,8 km/h (1 Bft)
08.09.2016 13:15 25,1 C 60 % 1014,5 hPa 0,0 mm SO 140 4,8 km/h (1 Bft)
08.09.2016 13:20 24,8 C 58 % 1014,4 hPa 0,0 mm S-SO 148 6,4 km/h (2 Bft)
08.09.2016 13:25 24,9 C 60 % 1014,5 hPa 0,0 mm S-SO 162 8,0 km/h (2 Bft)
08.09.2016 13:30 24,9 C 61 % 1014,6 hPa 0,0 mm SO 144 8,0 km/h (2 Bft)
08.09.2016 13:35 24,9 C 56 % 1014,5 hPa 0,0 mm S-SO 159 6,4 km/h (2 Bft)
08.09.2016 13:40 24,9 C 54 % 1014,5 hPa 0,0 mm SO 140 8,0 km/h (2 Bft)
08.09.2016 13:45 25,1 C 55 % 1014,5 hPa 0,0 mm S-SO 163 6,4 km/h (2 Bft)
08.09.2016 13:50 25,2 C 58 % 1014,4 hPa 0,0 mm O 98 4,8 km/h (1 Bft)
08.09.2016 13:55 25,2 C 55 % 1014,4 hPa 0,0 mm O-SO 114 4,8 km/h (1 Bft)
08.09.2016 14:00 25,3 C 57 % 1014,3 hPa 0,0 mm SO 126 8,0 km/h (2 Bft)
08.09.2016 14:05 25,3 C 58 % 1014,3 hPa 0,0 mm SO 134 6,4 km/h (2 Bft)
08.09.2016 14:10 25,2 C 57 % 1014,3 hPa 0,0 mm S-SO 150 6,4 km/h (2 Bft)
08.09.2016 14:15 25,2 C 56 % 1014,3 hPa 0,0 mm S-SO 149 8,0 km/h (2 Bft)
08.09.2016 14:20 25,3 C 51 % 1014,3 hPa 0,0 mm S-SO 148 6,4 km/h (2 Bft)
08.09.2016 14:25 25,3 C 54 % 1014,2 hPa 0,0 mm SO 144 8,0 km/h (2 Bft)
08.09.2016 14:30 25,3 C 52 % 1014,2 hPa 0,0 mm SO 132 6,4 km/h (2 Bft)
08.09.2016 14:35 25,4 C 54 % 1014,3 hPa 0,0 mm SO 135 4,8 km/h (1 Bft)
08.09.2016 14:40 25,4 C 48 % 1014,2 hPa 0,0 mm S-SO 158 4,8 km/h (1 Bft)
08.09.2016 14:45 25,4 C 52 % 1014,2 hPa 0,0 mm S-SO 158 4,8 km/h (1 Bft)
08.09.2016 14:50 25,4 C 52 % 1014,1 hPa 0,0 mm S-SO 158 3,2 km/h (1 Bft)
08.09.2016 14:55 25,4 C 60 % 1014,1 hPa 0,0 mm O-NO 75 8,0 km/h (2 Bft)
08.09.2016 15:00 25,3 C 56 % 1014,1 hPa 0,0 mm O 92 4,8 km/h (1 Bft)
08.09.2016 15:05 25,3 C 55 % 1014,0 hPa 0,0 mm O-SO 119 6,4 km/h (2 Bft)
08.09.2016 15:10 25,3 C 58 % 1014,0 hPa 0,0 mm O-SO 110 4,8 km/h (1 Bft)
08.09.2016 15:15 25,3 C 59 % 1014,0 hPa 0,0 mm O 88 4,8 km/h (1 Bft)
08.09.2016 15:20 25,3 C 58 % 1013,9 hPa 0,0 mm O 96 6,4 km/h (2 Bft)
08.09.2016 15:25 25,2 C 59 % 1013,9 hPa 0,0 mm SO 127 8,0 km/h (2 Bft)
08.09.2016 15:30 25,2 C 57 % 1013,8 hPa 0,0 mm O-SO 119 3,2 km/h (1 Bft)
08.09.2016 15:35 25,2 C 59 % 1013,8 hPa 0,0 mm O-SO 119 3,2 km/h (1 Bft)
08.09.2016 15:40 25,2 C 55 % 1013,7 hPa 0,0 mm SO 130 6,4 km/h (2 Bft)
08.09.2016 15:45 25,2 C 53 % 1013,7 hPa 0,0 mm S-SO 154 4,8 km/h (1 Bft)
08.09.2016 15:50 25,3 C 52 % 1013,7 hPa 0,0 mm S-SO 149 6,4 km/h (2 Bft)
08.09.2016 15:55 25,2 C 53 % 1013,7 hPa 0,0 mm S 175 4,8 km/h (1 Bft)
08.09.2016 16:00 25,4 C 54 % 1013,6 hPa 0,0 mm S 174 3,2 km/h (1 Bft)
08.09.2016 16:05 25,4 C 59 % 1013,6 hPa 0,0 mm W-NW 290 6,4 km/h (2 Bft)
08.09.2016 16:10 25,6 C 52 % 1013,6 hPa 0,0 mm W 269 8,0 km/h (2 Bft)
08.09.2016 16:15 25,6 C 57 % 1013,6 hPa 0,0 mm NW 304 8,0 km/h (2 Bft)
08.09.2016 16:20 25,6 C 55 % 1013,6 hPa 0,0 mm W-NW 292 6,4 km/h (2 Bft)
08.09.2016 16:25 25,5 C 53 % 1013,6 hPa 0,0 mm W 279 6,4 km/h (2 Bft)
08.09.2016 16:30 25,5 C 52 % 1013,6 hPa 0,0 mm W-NW 293 6,4 km/h (2 Bft)
08.09.2016 16:35 25,3 C 54 % 1013,5 hPa 0,0 mm NW 315 6,4 km/h (2 Bft)
08.09.2016 16:40 25,3 C 55 % 1013,5 hPa 0,0 mm W 277 6,4 km/h (2 Bft)
08.09.2016 16:45 25,3 C 53 % 1013,5 hPa 0,0 mm W 260 6,4 km/h (2 Bft)
08.09.2016 16:50 25,3 C 58 % 1013,4 hPa 0,0 mm W-NW 284 6,4 km/h (2 Bft)
08.09.2016 16:55 25,2 C 58 % 1013,4 hPa 0,0 mm W-NW 282 8,0 km/h (2 Bft)
08.09.2016 17:00 25,1 C 56 % 1013,4 hPa 0,0 mm W-NW 297 6,4 km/h (2 Bft)
08.09.2016 17:05 25,1 C 56 % 1013,4 hPa 0,0 mm W 267 6,4 km/h (2 Bft)
08.09.2016 17:10 25,1 C 57 % 1013,4 hPa 0,0 mm W 268 4,8 km/h (1 Bft)
08.09.2016 17:15 25,0 C 57 % 1013,4 hPa 0,0 mm W-NW 283 4,8 km/h (1 Bft)
08.09.2016 17:20 24,9 C 58 % 1013,4 hPa 0,0 mm NW 309 6,4 km/h (2 Bft)
08.09.2016 17:25 24,9 C 60 % 1013,4 hPa 0,0 mm W-NW 294 4,8 km/h (1 Bft)
08.09.2016 17:30 24,8 C 59 % 1013,3 hPa 0,0 mm W-NW 291 6,4 km/h (2 Bft)
08.09.2016 17:35 24,7 C 60 % 1013,4 hPa 0,0 mm W-NW 293 4,8 km/h (1 Bft)
08.09.2016 17:40 24,8 C 59 % 1013,3 hPa 0,0 mm W-NW 298 8,0 km/h (2 Bft)
08.09.2016 17:45 24,7 C 60 % 1013,3 hPa 0,0 mm W-NW 290 3,2 km/h (1 Bft)
08.09.2016 17:50 24,6 C 60 % 1013,4 hPa 0,0 mm W-NW 290 4,8 km/h (1 Bft)
08.09.2016 17:55 24,3 C 61 % 1013,3 hPa 0,0 mm W-NW 289 4,8 km/h (1 Bft)
08.09.2016 18:00 24,2 C 61 % 1013,3 hPa 0,0 mm W-NW 288 4,8 km/h (1 Bft)
08.09.2016 18:05 24,1 C 61 % 1013,3 hPa 0,0 mm W-NW 288 1,6 km/h (1 Bft)
08.09.2016 18:10 23,8 C 66 % 1013,3 hPa 0,0 mm W-NW 288 1,6 km/h (1 Bft)
08.09.2016 18:15 23,2 C 69 % 1013,4 hPa 0,0 mm W-NW 288 1,6 km/h (1 Bft)
08.09.2016 18:20 22,9 C 67 % 1013,3 hPa 0,0 mm W-NW 288 1,6 km/h (1 Bft)
08.09.2016 18:25 22,6 C 68 % 1013,3 hPa 0,0 mm W-NW 288 0,0 km/h (0 Bft)
08.09.2016 18:30 22,3 C 68 % 1013,4 hPa 0,0 mm W-NW 288 0,0 km/h (0 Bft)
08.09.2016 18:35 22,2 C 69 % 1013,3 hPa 0,0 mm W-NW 288 0,0 km/h (0 Bft)
08.09.2016 18:40 21,7 C 71 % 1013,2 hPa 0,0 mm W-NW 288 0,0 km/h (0 Bft)
08.09.2016 18:45 21,6 C 74 % 1013,3 hPa 0,0 mm W-NW 288 0,0 km/h (0 Bft)
08.09.2016 18:50 21,3 C 74 % 1013,2 hPa 0,0 mm W-NW 288 0,0 km/h (0 Bft)
08.09.2016 18:55 21,1 C 75 % 1013,2 hPa 0,0 mm W-NW 288 0,0 km/h (0 Bft)
08.09.2016 19:00 20,7 C 77 % 1013,3 hPa 0,0 mm W-NW 288 0,0 km/h (0 Bft)
08.09.2016 19:05 20,2 C 79 % 1013,3 hPa 0,0 mm W-NW 288 0,0 km/h (0 Bft)
08.09.2016 19:10 19,9 C 80 % 1013,3 hPa 0,0 mm W-NW 288 0,0 km/h (0 Bft)
08.09.2016 19:15 19,7 C 83 % 1013,4 hPa 0,0 mm W-NW 288 0,0 km/h (0 Bft)
08.09.2016 19:20 19,6 C 82 % 1013,4 hPa 0,0 mm W-NW 288 0,0 km/h (0 Bft)
08.09.2016 19:25 19,2 C 82 % 1013,5 hPa 0,0 mm W-NW 288 0,0 km/h (0 Bft)
08.09.2016 19:30 18,8 C 84 % 1013,4 hPa 0,0 mm W-NW 288 0,0 km/h (0 Bft)
08.09.2016 19:35 18,6 C 85 % 1013,5 hPa 0,0 mm W-NW 288 0,0 km/h (0 Bft)
08.09.2016 19:40 18,4 C 85 % 1013,5 hPa 0,0 mm W-NW 288 0,0 km/h (0 Bft)
08.09.2016 19:45 18,3 C 85 % 1013,5 hPa 0,0 mm W-NW 288 0,0 km/h (0 Bft)
08.09.2016 19:50 18,1 C 84 % 1013,6 hPa 0,0 mm W-NW 288 0,0 km/h (0 Bft)
08.09.2016 19:55 17,7 C 86 % 1013,7 hPa 0,0 mm W-NW 288 0,0 km/h (0 Bft)
08.09.2016 20:00 17,4 C 87 % 1013,7 hPa 0,0 mm W-NW 288 0,0 km/h (0 Bft)
08.09.2016 20:05 17,2 C 87 % 1013,7 hPa 0,0 mm W-NW 288 0,0 km/h (0 Bft)
08.09.2016 20:10 16,9 C 88 % 1013,7 hPa 0,0 mm W-NW 288 0,0 km/h (0 Bft)
08.09.2016 20:15 16,5 C 88 % 1013,9 hPa 0,0 mm W-NW 288 0,0 km/h (0 Bft)
08.09.2016 20:20 16,4 C 90 % 1014,0 hPa 0,0 mm W-NW 288 0,0 km/h (0 Bft)
08.09.2016 20:25 16,4 C 90 % 1014,1 hPa 0,0 mm W-NW 288 0,0 km/h (0 Bft)
08.09.2016 20:30 16,3 C 90 % 1014,2 hPa 0,0 mm W-NW 288 0,0 km/h (0 Bft)
08.09.2016 20:35 16,1 C 90 % 1014,2 hPa 0,0 mm W-NW 288 1,6 km/h (1 Bft)
08.09.2016 20:40 16,1 C 90 % 1014,2 hPa 0,0 mm W-NW 288 1,6 km/h (1 Bft)
08.09.2016 20:45 15,9 C 90 % 1014,1 hPa 0,0 mm W-NW 288 0,0 km/h (0 Bft)
08.09.2016 20:50 15,9 C 91 % 1014,1 hPa 0,0 mm W-NW 288 1,6 km/h (1 Bft)
08.09.2016 20:55 16,1 C 90 % 1014,2 hPa 0,0 mm W-NW 288 4,8 km/h (1 Bft)
08.09.2016 21:00 16,3 C 90 % 1014,2 hPa 0,0 mm W-NW 288 1,6 km/h (1 Bft)
08.09.2016 21:05 16,3 C 90 % 1014,3 hPa 0,0 mm W-NW 288 1,6 km/h (1 Bft)
08.09.2016 21:10 16,3 C 90 % 1014,3 hPa 0,0 mm W-NW 288 0,0 km/h (0 Bft)
08.09.2016 21:15 16,0 C 89 % 1014,3 hPa 0,0 mm W-NW 288 1,6 km/h (1 Bft)
08.09.2016 21:20 15,9 C 90 % 1014,4 hPa 0,0 mm W-NW 288 1,6 km/h (1 Bft)
08.09.2016 21:25 15,8 C 90 % 1014,3 hPa 0,0 mm W-NW 288 0,0 km/h (0 Bft)
08.09.2016 21:30 15,7 C 90 % 1014,3 hPa 0,0 mm W-NW 288 3,2 km/h (1 Bft)
08.09.2016 21:35 15,7 C 90 % 1014,3 hPa 0,0 mm W-NW 288 1,6 km/h (1 Bft)
08.09.2016 21:40 15,7 C 90 % 1014,4 hPa 0,0 mm W-NW 288 1,6 km/h (1 Bft)
08.09.2016 21:45 15,6 C 90 % 1014,5 hPa 0,0 mm W-NW 288 1,6 km/h (1 Bft)
08.09.2016 21:50 15,6 C 90 % 1014,6 hPa 0,0 mm W-NW 288 1,6 km/h (1 Bft)
08.09.2016 21:55 15,4 C 90 % 1014,6 hPa 0,0 mm W-NW 288 0,0 km/h (0 Bft)
08.09.2016 22:00 15,3 C 90 % 1014,5 hPa 0,0 mm W-NW 288 0,0 km/h (0 Bft)
08.09.2016 22:05 15,3 C 91 % 1014,6 hPa 0,0 mm W-NW 288 0,0 km/h (0 Bft)
08.09.2016 22:10 15,3 C 91 % 1014,5 hPa 0,0 mm W-NW 288 0,0 km/h (0 Bft)
08.09.2016 22:15 15,3 C 91 % 1014,6 hPa 0,0 mm W-NW 288 0,0 km/h (0 Bft)
08.09.2016 22:20 15,3 C 91 % 1014,7 hPa 0,0 mm W-NW 288 0,0 km/h (0 Bft)
08.09.2016 22:25 15,3 C 91 % 1014,6 hPa 0,0 mm W-NW 288 0,0 km/h (0 Bft)
08.09.2016 22:30 15,2 C 91 % 1014,7 hPa 0,0 mm W-NW 288 0,0 km/h (0 Bft)
08.09.2016 22:35 15,2 C 91 % 1014,7 hPa 0,0 mm W-NW 288 0,0 km/h (0 Bft)
08.09.2016 22:40 15,1 C 91 % 1014,8 hPa 0,0 mm W-NW 288 0,0 km/h (0 Bft)
08.09.2016 22:45 15,0 C 91 % 1014,8 hPa 0,0 mm W-NW 288 0,0 km/h (0 Bft)
08.09.2016 22:50 14,9 C 91 % 1014,8 hPa 0,0 mm W-NW 288 0,0 km/h (0 Bft)
08.09.2016 22:55 14,8 C 91 % 1014,7 hPa 0,0 mm W-NW 288 0,0 km/h (0 Bft)
08.09.2016 23:00 14,6 C 91 % 1014,8 hPa 0,0 mm W-NW 288 0,0 km/h (0 Bft)
08.09.2016 23:05 14,6 C 91 % 1014,8 hPa 0,0 mm W-NW 288 0,0 km/h (0 Bft)
08.09.2016 23:10 14,5 C 92 % 1014,9 hPa 0,0 mm W-NW 288 0,0 km/h (0 Bft)
08.09.2016 23:15 14,4 C 92 % 1014,9 hPa 0,0 mm W-NW 288 0,0 km/h (0 Bft)
08.09.2016 23:20 14,2 C 92 % 1015,0 hPa 0,0 mm W-NW 288 0,0 km/h (0 Bft)
08.09.2016 23:25 14,2 C 92 % 1015,1 hPa 0,0 mm W-NW 288 0,0 km/h (0 Bft)
08.09.2016 23:30 14,3 C 92 % 1015,0 hPa 0,0 mm W-NW 288 0,0 km/h (0 Bft)
08.09.2016 23:35 14,2 C 92 % 1015,0 hPa 0,0 mm W-NW 288 0,0 km/h (0 Bft)
08.09.2016 23:40 14,1 C 92 % 1015,1 hPa 0,0 mm W-NW 288 0,0 km/h (0 Bft)
08.09.2016 23:45 14,1 C 92 % 1015,1 hPa 0,0 mm W-NW 288 0,0 km/h (0 Bft)
08.09.2016 23:50 13,9 C 92 % 1015,1 hPa 0,0 mm W-NW 288 0,0 km/h (0 Bft)
08.09.2016 23:55 13,9 C 92 % 1015,2 hPa 0,0 mm W-NW 288 0,0 km/h (0 Bft)
_ Min-Zeit 05:50 14:40 18:40 - - - 00:05
Minimum _ 10,8 C 48 % 1013,2 hPa - - - 0,0 km/h (0 Bft)
_ Max-Zeit 16:15 02:30 00:05 00:25 - - 11:40
Maximum _ 25,7 C 93 % 1016,4 hPa 0,2 mm - - 9,7 km/h
SO (2 Bft)
Durchschnitt _ 18,0 C 79 % 1014,7 hPa #0,2 mm W-NW - 3,4 km/h (1 Bft)